Regional Weather Roundup
Issued by NWS Grand Forks, ND

Home | Current Version | Previous Version | Text Only | Print | Product List | Glossary Off
Versions: 1 2 3 4 5 6 7 8 9 10 11 12 13 14 15 16 17 18 19 20 21 22 23 24 25 26 27 28 29 30 31 32 33 34 35 36 37 38 39 40 41 42 43 44 45 46 47 48 49 50

000
ASUS43 KFGF 011310
RWRFGF
PRAIRIE TO PINES  WEATHER ROUNDUP
NATIONAL WEATHER SERVICE EASTERN NORTH DAKOTA/GRAND FORKS ND
800 AM CDT WED OCT 01 2014

 **SATELLITE DATA USED TO AUGMENT SKY COVER AT AUTOMATED STATIONS**
 *****  WEATHER ACROSS EASTERN NORTH DAKOTA  *****

CITY           SKY/WX    TMP DP  RH WIND       PRES   REMARKS
GRAND FORKS    CLOUDY    58  53  84 S12G17    29.55S
GRAND FRKS AFB CLOUDY    58  55  91 S13       29.56R
GRAND FRKS NWS   N/A     57 N/A N/A S15         N/A
DEVILS LAKE    CLOUDY    55  46  71 SW18      29.51R
FARGO          PTCLDY    59  55  87 S13       29.64R
WAHPETON ARPT  MOSUNNY   59  55  88 S12       29.68R
$$

 ***** WEATHER ACROSS CENTRAL AND WESTERN NORTH DAKOTA  *****

CITY           SKY/WX    TMP DP  RH WIND       PRES   REMARKS
BISMARCK       CLOUDY    56  50  80 W13G23    29.63R
MINOT          CLOUDY    54  51  90 SW12      29.50R
JAMESTOWN      PTCLDY    53  50  89 S10       29.61R
MINOT AFB      CLOUDY    54  54 100 W14       29.49R
GARRISON         N/A     54  51  90 W16G26    29.56R
WILLISTON      CLOUDY    53  49  86 W20G28    29.61R
DICKINSON      MOCLDY    52  48  86 W22G28    29.65R
HETTINGER      CLOUDY    52  49  89 W14       29.72R
$$

 *****  OTHER AIRPORT OBSERVATIONS IN OUR AREA  *****

CITY           SKY/WX    TMP DP  RH WIND       PRES   REMARKS
WALHALLA         N/A     55  55 100 SW14G22   29.48R
GRAFTON AIRPOR CLOUDY    55  52  88 S15G22    29.53R
VALLEY CITY AR FAIR      55  55 100 SW16G24   29.60S
CANDO          CLOUDY    52  50  93 SW14      29.50R
CAVALIER APRT  CLOUDY    57  50  77 S14G21    29.49R
GWINNER          N/A     57  54  88 SW12      29.67R
ROLLA          CLOUDY    50  50 100 SW13G25   29.47R
 ***** THE ABOVE OBSERVATIONS ARE NON NWS ARE NOT QUALITY
       CONTROLLED AND MAY MIS-REPORT RAIN FOR SNOW...
$$

  *****  WEATHER ACROSS NORTHERN MINNESOTA  *****

CITY           SKY/WX    TMP DP  RH WIND       PRES   REMARKS
FLAG ISLAND    CLOUDY    55  52  88 S35       29.58S
WARROAD        CLOUDY    55  52  88 SE18G24   29.59R
ROSEAU         CLOUDY    61  54  77 S24G30    29.56S
HALLOCK        CLOUDY    59  52  77 S18G25    29.52R
THF RVR FALLS  CLOUDY    61  54  77 S20G31    29.59R
BAUDETTE       CLOUDY    53  48  83 S12G22    29.65F
WASKISH        MOCLDY    52  48  87 SE12G18   29.68F
CROOKSTON      CLOUDY    61  54  77 S17       29.60R
STEPHEN NDAWN    N/A     59  54  82 SW14        N/A
GREENBUSH NDAW   N/A     61  54  77 S20         N/A
$$
  *****  WEATHER ACROSS CENTRAL AND WEST MINNESOTA  *****

CITY           SKY/WX    TMP DP  RH WIND       PRES   REMARKS
FOSSTON        CLOUDY    57  54  88 S15G23    29.65R
BEMIDJI        CLOUDY    53  50  90 S14G20    29.70S
PARK RAPIDS    CLOUDY    51  51 100 S20       29.73S FOG
ELBOW LAKE     CLOUDY    57  56  95 S12       29.71R FOG
WADENA         CLOUDY    52  52 100 SE15      29.73S
DETROIT LAKES  CLOUDY    59  55  88 S13       29.69S
MOORHEAD       NOT AVBL
FERGUS FALLS   MOCLDY    61  57  88 S8        29.70R FOG
MORRIS MN      CLOUDY    57  55  94 SE12      29.71S FOG
STAPLES        CLOUDY    50  48  93 SE9       29.76S FOG
$$
  *****  WEATHER ELSEWHERE ACROSS MINNESOTA  *****

CITY           SKY/WX    TMP DP  RH WIND       PRES   REMARKS
DULUTH         RAIN      47  44  90 SE12      29.86S FOG
INTRNTL FALLS  CLOUDY    52  47  83 VRB7      29.74S
ELY            CLOUDY    48  45  87 S10       29.83S
CLOQUET        CLOUDY    46  43  87 E7        29.84F
WHEATON        CLOUDY    57  55  94 SE9       29.70S FOG
BRAINERD       CLOUDY    50  47  89 SE12      29.79S FOG
HIBBING        CLOUDY    49  44  83 SE10      29.83R
ALEXANDRIA     CLOUDY    54  53  97 SE13      29.75S FOG
SAINT CLOUD    CLOUDY    53  46  77 SE9       29.81R
MINNEAPOLIS    LGT RAIN  50  47  89 SE10      29.85R FOG
$$

  *****  WEATHER ACROSS SOUTH DAKOTA  *****

CITY           SKY/WX    TMP DP  RH WIND       PRES   REMARKS
SIOUX FALLS    CLOUDY    63  61  93 S8        29.73S
BROOKINGS      NOT AVBL
WATERTOWN      CLOUDY    60  58  92 SW14      29.72R
HURON          CLOUDY    61  59  93 S3        29.70S FOG
SISSETON         N/A     60  59  96 SW8       29.67R
ABERDEEN       CLOUDY    53  50  89 SW5       29.69R
MITCHELL       CLOUDY    61  59  93 S3        29.72R
PIERRE         PTCLDY    53  47  79 W12       29.73R
MOBRIDGE       MOCLDY    55  51  86 W5        29.68R
RAPID CITY     MOCLDY    49  44  83 N10       29.79R
$$

  *****  SOME WEATHER IN NEARBY STATES *****

CITY           SKY/WX    TMP DP  RH WIND       PRES   REMARKS
GLASGOW MT     CLOUDY    50  44  80 W16       29.73R
GREAT FALLS MT CLOUDY    43  41  93 SW9       29.94R
CHEYENNE WY    CLOUDY    47  36  65 NW7       29.91R
SCOTTSBLUFF NE CLEAR     44  43  96 NW6       29.87R
OMAHA NE       LGT RAIN  62  59  90 SE3       29.73S
DES MOINES IA  LGT RAIN  60  57  89 SE9G20    29.79R
DAVENPORT IA   NOT AVBL
CHICAGO IL     MOSUNNY   53  47  79 SE10      30.01S
EAU CLAIRE WI  RAIN      47  45  93 SE7       29.92F FOG
LA CROSSE WI   CLOUDY    52  46  80 SE5       29.93S
$$

  *****  SOME NATIONAL WEATHER *****

CITY           SKY/WX    TMP DP  RH WIND       PRES   REMARKS
LA GUARDIA NY  CLOUDY    63  57  82 NE10      30.03R
RALEIGH NC     FOG       63  61  93 NE3       30.00R VSB 1/2
ATLANTA GA     MOSUNNY   68  64  87 NW8       30.01R
NEW ORLEANS LA PTSUNNY   78  72  81 E7        29.91R
OKLAHOMA CITY  PTCLDY    71  65  81 S10       29.76R
ALBUQUERQUE NM CLEAR     52  36  54 NE3       29.99R
SALT LAKE CITY MOCLDY    48  40  73 W6        30.01R
LOS ANGELES CA PTCLDY    63  61  93 CALM      29.79R
BOISE ID       CLEAR     43  38  82 W3        30.11R
SEATTLE WA     MOCLDY    52  50  93 S3        30.21R
$$

*** WEATHER ACROSS MANITOBA...SASKATCHEWAN AND ONTARIO ***
                ***ONTARIO***

CITY           SKY/WX    TMP DP  RH WIND       PRES   REMARKS
GERALDTON      CLOUDY    46  45  93 S6        29.98S
THUNDER BAY    DRIZZLE   46  45  93 SE5       29.95F
SIOUX LOOKOUT  MOCLDY    46  43  87 S12G21    29.75F
TORONTO        NOT AVBL
BIG TROUT LK   CLEAR     45  37  76 S15G23    29.74F
PICKLE LAKE    MOCLDY    39  36  87 SE12G18   29.79F
DRYDEN         NOT AVBL
KENORA         CLOUDY    52  48  87 S18G28    29.62F
$$
                *** MANITOBA***

CITY           SKY/WX    TMP DP  RH WIND       PRES   REMARKS
BRANDON        NOT AVBL
DAUPHIN        FOG       52  50  93 W5        29.36S VSB 1/4
ISLAND LAKE    CLOUDY    48  45  87 SE13      29.54F
PILOT MOUND      N/A     52  50  93 SW20G26     N/A
THE PAS        LGT RAIN  50  50 100 E3        29.40  FOG
THOMPSON       LGT RAIN  46  46 100 E6        29.48F
WINNIPEG       LGT RAIN  57  54  88 S21G28    29.42R
LYNN LAKE      LGT RAIN  48  48 100 N3        29.47S FOG
CHURCHILL      LGT RAIN  43  41  93 SE14      29.61F
GILLAM         MOCLDY    36  36 100 E8        29.58F
$$
                ***SASKATCHEWAN***

CITY           SKY/WX    TMP DP  RH WIND       PRES   REMARKS
ESTEVAN        LGT RAIN  50  50 100 W9        29.52R FOG
KINDERSLEY     MOCLDY    41  39  93 W8        29.76R
LLOYDMINSTER   PTCLDY    39  37  93 W12       29.75R
PRINCE ALBERT  CLOUDY    50  46  87 NW14G23   29.55S
REGINA         LGT RAIN  50  50 100 NW15G24   29.55R
YORKTON          N/A     48  48 100 W8        29.41S
N. BATTLEFORD  CLOUDY    50  46  87 NW18G25   29.71R
LA RONGE       NOT AVBL
SASKATOON      NOT AVBL
SWIFT CURRENT  CLOUDY    45  43  93 NW18G25   29.71R
$$
NOTE: THESE ARE AUTOMATED STATIONS WITH LIMITED QUALITY CONTROL
      "FAIR" INDICATES FEW OR NO CLOUDS BELOW 12,000 FEET WITH NO
      SIGNIFICANT WEATHER AND/OR OBSTRUCTIONS TO VISIBILITY.
      SKY/WX - SKY CONDITION AND SIGNIFICANT WEATHER.
      TMP - AIR TEMPERATURE.    DP   - DEWPOINT TEMPERATURE.
      RH  - RELATIVE HUMIDITY.  PRES - PRESSURE.
      HX  - HEAT INDEX.         WCI  - WIND CHILL INDEX.
$


USA.gov is the U.S. government's official web portal to all federal, state and local government web resources and services.